www.pogodaiklimat.ru

Погода и климат >> Архив погоды >> Россия >> Иркутская область >> Жигалово


АРХИВ ПОГОДЫ в Жигалове

Время (UTC), дата Ветер
(напр.,м/с)
 
Видим.   Явления Облачность Т
(С)
Тd
(С)
f
(%)
Тe
(С)
Тes
(С)
Комфортность P
(гПа)
Po
(гПа)
Тmin
(С)
Tmax
(С)
R
(мм)
R24
(мм)
S
(см)
12 12.06 СЗ 1 50 км 1/0
[Ci fib]
+22.3 +3.7 30 +22 +23 комфорт 1011.0 963.5 +23.2
15 12.06 штиль 0 н/о 1/0
[Ci fib]
+11.2 +7.7 79 +11 +11 1013.5 964.1
18 12.06 штиль 0 н/о ясно +7.2 +5.5 89 +6 +6 1015.3 965.1
21 12.06 штиль 0 50 км ясно +4.8 +3.5 91 +4 +4 1016.4 965.8
00 13.06 В 1 50 км ясно +12.2 +6.1 66 +12 +18 1014.6 965.3 +4.3
03 13.06 СВ 1 50 км ясно +20.4 +7.2 42 +23 +39 комфорт 1010.9 963.1
06 13.06 С 2 50 км ясно +25.7 +5.0 26 +25 +40 комфорт 1007.4 960.7
09 13.06 ЮВ 2 50 км 3/0
[Ci fib]
+28.3 +5.6 24 +27 +34 жарко 1005.3 959.0
12 13.06 СВ 1 50 км 9/0
[Ci fib]
+25.9 +9.3 35 +26 +27 жарко 1004.4 957.8 +28.9
15 13.06 СВ 1 н/о 10/0
[Ci fib]
+16.3 +9.9 66 +17 +17 1006.4 958.3
18 13.06 штиль 0 н/о 10/0
[Ci fib]
+13.5 +9.9 79 +13 +13 1007.4 958.7
21 13.06 СЗ 1 50 км 10/0
[Ac lent Ci fib]
+11.7 +9.1 84 +12 +12 1007.3 958.3
00 14.06 СВ 1 50 км 10/3 1000 м
[Sc Ac trans Ci fib]
+16.4 +8.5 60 +17 +19 1005.3 957.2 +11.6
03 14.06 СВ 1 50 км 10/3 1000 м
[Cb cap Ac trans Ci fib]
+24.7 +8.8 36 +25 +31 комфорт 1001.7 955.0
06 14.06 ЮВ 1 50 км 10/6 600 м
[Cb cap Ac trans Ci fib]
+28.4 +7.7 27 +28 +31 жарко 998.5 952.5
09 14.06 В 2 50 км 10/4 600 м
[Cb cap Ac lent Ci fib]
+28.2 +9.2 30 +28 +30 жарко 997.7 951.8
12 14.06 ЮЗ 3 50 км 10/10 600 м
[Cb cap]
+24.8 +12.8 47 +27 +27 жарко 998.9 952.5 +28.9
15 14.06 ЮЗ 1 н/о слаб. ливневой дождь 10/8 600 м
[Cb cap Ac und]
+19.2 +14.6 75 +22 +22 комфорт 1001.2 953.8
18 14.06 СЗ 1 н/о {ливн. осадки} 10/8 600 м
[Cb cap Ac und]
+17.9 +14.4 80 +19 +19 1001.1 953.5
21 14.06 СЗ 1 50 км 10/4 1000 м
[Sc Ac und]
+16.5 +14.2 86 +17 +17 1001.2 953.4
00 15.06 В 2 50 км 10/3 1000 м
[Sc Cs]
+19.5 +14.5 73 +22 +24 комфорт 1001.0 953.7 +16.1 0.1
03 15.06 СЗ 2 50 км 10/3 1000 м
[Sc Cs]
+23.1 +15.3 61 +27 +35 душно 1000.1 953.4
06 15.06 ЮЗ 2 50 км 10/10 1000 м
[Cb cap]
+25.3 +15.3 54 +28 +28 жарко 999.0 952.7
09 15.06 СЗ 3 50 км 8/3 1000 м
[Cb cap Ci fib]
+28.4 +13.7 40 +30 +34 жарко 997.7 951.9
12 15.06 Ю 2
{12}
10 км гроза, ливневой дождь 9/9 600 м
[Cb cap]
+17.8 +13.7 77 +18 +18 1002.7 955.0 +28.4 0.3
15 15.06 Ю 1 н/о {гроза, ливн. осадки} 10/10 600 м
[Cb cap]
+15.7 +13.7 88 +16 +16 1004.8 956.7
18 15.06 В 1 н/о {гроза, ливн. осадки} 10/10 600 м
[Cb cap]
+14.3 +12.9 91 +15 +15 1005.2 956.9
21 15.06 штиль 0 50 км 10/10 600 м
[Cb cap]
+14.4 +13.0 91 +14 +14 1005.2 956.8
00 16.06 СЗ 1 10 км 10/10 600 м
[Cb cap]
+16.2 +14.2 88 +17 +17 1005.3 957.2 +14.1 0.1
03 16.06 штиль 0 50 км 10/5 600 м
[Cb cap Ac und]
+19.3 +14.5 74 +21 +23 комфорт 1004.9 957.3
06 16.06 В 3 50 км 6/1 1000 м
[Cb cap Ac trans Ci fib]
+25.4 +14.1 50 +28 +36 жарко 1002.7 956.3
09 16.06 ЮВ 1 50 км 6/3 1000 м
[Cb cap Ci fib]
+28.1 +10.6 34 +29 +34 жарко 1001.0 954.9
12 16.06 СВ 1 50 км 10/6 1000 м
[Cb cap Ci fib]
+26.0 +12.6 43 +28 +28 жарко 1001.5 955.1 +28.5
15 16.06 СЗ 1 н/о 10/4 1000 м
[Cb cap Ci fib]
+20.3 +12.3 60 +23 +23 комфорт 1003.5 956.2
18 16.06 ЮВ 1 н/о 10/4 1000 м
[Cb cap Ac und]
+16.4 +12.2 76 +17 +17 1004.6 956.5
21 16.06 штиль 0 50 км 10/3 1000 м
[Sc Ac trans Ci fib]
+14.1 +11.7 85 +14 +14 1005.3 956.9
00 17.06 штиль 0 50 км 10/6 1000 м
[Cb cap Ac und]
+17.2 +13.5 79 +17 +18 1004.3 956.5 +13.6
03 17.06 В 1 50 км 6/0
[Cc]
+24.3 +13.3 50 +26 +40 жарко 1002.3 955.6
06 17.06 ЮВ 2 50 км 8/5 1000 м
[Cb cap Ci fib]
+30.6 +6.5 22 +29 +36 жарко 999.9 954.3
09 17.06 Ю 2 50 км 8/5 1000 м
[Cb cap Ci fib]
+31.1 +5.7 20 +29 +33 жарко 998.6 953.1
12 17.06 З 2 50 км 9/9 1000 м
[Cb cap]
+25.1 +10.7 40 +26 +26 жарко 1001.0 954.5 +32.1
15 17.06 З 3
{15}
н/о {ливн. осадки} 6/5 1000 м
[Cb cap Ac trans]
+19.9 +13.6 67 +22 +22 комфорт 1006.3 958.8
18 17.06 З 5
{12}
н/о {ливн. осадки} 10/10 600 м
[Cb cap]
+15.5 +11.5 77 +14 +14 1010.9 962.5
21 17.06 З 5
{11}
50 км 10/10 600 м
[Cb cap]
+14.2 +9.7 74 +13 +13 1013.2 964.4
00 18.06 З 2
{10}
50 км в посл. час ливневой дождь 10/10 600 м
[Cb cap]
+12.6 +9.5 81 +12 +12 1016.2 966.9 +12.3 2
03 18.06 З 3 10 км слаб. ливневой дождь 10/10 600 м
[Cb cap]
+13.4 +10.2 81 +12 +12 1017.1 968.0 +12.2
06 18.06 З 5 50 км {ливн. осадки} 10/10 600 м
[Cb cap]
+15.2 +9.7 70 +14 +14 1016.6 967.8
09 18.06 СВ 2 50 км 8/3 600 м
[Cb cap Ac trans]
+18.5 +8.7 53 +19 +22 1015.5 967.3
12 18.06 В 2 50 км 8/3 600 м
[Cb cap Ac trans Cc]
+17.2 +9.1 59 +18 +18 1015.5 967.1 +19.4 2
15 18.06 З 1 н/о 6/3 600 м
[Cb cap Ac trans]
+11.6 +9.4 86 +11 +11 1016.6 967.2
18 18.06 штиль 0 н/о 6/3 600 м
[Cb cap Ac trans]
+10.0 +8.5 90 +9 +9 1016.9 967.2
21 18.06 СЗ 1 50 км 10/0
[Ac und]
+9.1 +7.8 92 +8 +8 1016.6 966.8
00 19.06 штиль 0 50 км 6/3 600 м
[Cb cap Ac trans]
+13.8 +9.6 76 +13 +17 1015.3 966.3 +8.4
03 19.06 В 2 50 км 4/4 600 м
[Cb cap]
+19.8 +8.9 49 +21 +30 комфорт 1012.8 964.9
06 19.06 С 2 50 км 1/1 600 м
[Cb cap]
+23.1 +6.5 34 +24 +38 комфорт 1010.0 962.7
09 19.06 СВ 2 50 км 1/0
[Ci fib]
+25.8 +5.7 28 +25 +33 комфорт 1007.8 961.0

 

Местоположение метеостанции Жигалово (Иркутская область, Россия): широта 54.80 долгота 105.10 высота над уровнем моря 419 м.

В архиве по умолчанию представлена погода в Жигалове за последнюю неделю. Архивные данные за месяц целиком и за предыдущие месяцы, начиная с января 2011 года, Вы можете получить, выбрав интересующий диапазон дат из раскрывающегося списка и нажав кнопку "Ввод!".


*Определитесь, кто Вы:
робот инопланетянин человек

Внимание! Время в таблицах - всемирное. Для получения местного времени необходимо прибавить поправку, которая равна 8 ч.

Смотрите также архив погоды в соседних городах и на ближайших метеорологических станциях:

Погода в Качуге (Иркутская область, Россия) (106 км)
Погода в Тырке (Иркутская область, Россия) (127 км)
Погода в Орлинге (Иркутская область, Россия) (146 км)
Погода в Балаганске (Иркутская область, Россия) (162 км)
Погода в Караме (Иркутская область, Россия) (164 км)
Погода в Баяндае (Иркутская область, Россия) (191 км)
Погода в Заярске (Иркутская область, Россия) (213 км)
Погода в Солнечной (Иркутская область, Россия) (218 км)
Погода в Заларях (Иркутская область, Россия) (219 км)
Погода в Усть-Ордынском (Иркутская область, Россия) (223 км)

Пояснения к столбцам:

Ветер - указаны скорость ветра в м/с - средняя за 10 мин, порывы в срок и между сроками (в фигурных скобках) и направление, откуда дует ветер: С - северный, СВ - северо-восточный, В - восточный, ЮВ - юго-восточный, Ю - южный, ЮЗ - юго-западный, З - западный, СЗ - северо-западный.
Видимость - горизонтальная дальность видимости в метрах или километрах. При видимости от 1 до 10 км при отсутствии осадков обычно наблюдается дымка, при ухудшении видимости до 1 км и менее - туман. В сухую погоду видимость может ухудшаться дымом, пылью или мглою.
Явления - указаны атмосферные явления, наблюдавшиеся в срок или в последний час перед сроком; фигурными скобками обозначены явления, наблюдавшиеся между сроками (за 1-3 часа до срока); квадратными скобками обозначены град или гололедные отложения с указанием их диаметра в мм.
Облачность - указаны через наклонную черту общая и нижняя облачность в баллах и высота нижней границы облаков в метрах; квадратными скобками обозначены формы облаков: Ci - перистые, Cs - перисто-слоистые, Cc - перисто-кучевые, Ac - высококучевые, As - высокослоистые, Sc - слоисто-кучевые, Ns - слоисто-дождевые, Cu - кучевые, Cb - кучево-дождевые. Подробнее классификацию облаков см. в Атласе облаков (PDF).
T - Температура воздуха - температура, измеренная на высоте 2 м над землей.
Td - Температура точки росы - температура, при понижении до которой содержащийся в воздухе водяной пар достигнет насыщения.
f - Относительная влажность воздуха - влажноcть воздуха, измеренная на высоте 2 м над землей.
Te - Эффективная температура - температура, которую ощущает одетый по сезону человек в тени. Характеристика душности погоды. При расчете учитывается влияние влажности воздуха и скорости ветра на теплоощущения человека.
Tes - Эффективная температура на солнце - температура, которую ощущает человек, с поправкой на солнечный нагрев. Характеристика знойности погоды. Зависит от высоты солнца над горизонтом, облачности и скорости ветра. Ночью, в пасмурную погоду, а также при ветре 12 м/с и более поправка равна нулю.
P - Атмосферное давление - приведенное к уровню моря атмосферное давление.
Po - Атмосферное давление - измеренное на уровне метеостанции атмосферное давление.
Tmin - Минимальная температура - минимум температуры воздуха на высоте 2 м над землей.
Tmax - Максимальная температура - максимум температуры воздуха на высоте 2 м над землей.
R - Количество осадков - Количество выпавших осадков за период времени, мм. При наведении курсора мыши на число - период времени, за который выпало указанное количество осадков.
R24 - Количество осадков - Количество выпавших осадков за 24 часа, мм.
S - Снежный покров - Высота снежного покрова, см. При наведении курсора мыши на число - состояние снежного покрова и степень покрытия местности в баллах.